Location: Unspecified
(50.7693°N, 0.0000°E)
Time: 20:33:33
(UTC+00:00)

Transit 4A - Pass Details

Date: 27 June 2019
Orbit: 862 x 982 km, 66.8° (Epoch: 17 July)

Event Time Altitude Azimuth Distance (km) Brightness Sun altitude
Rises 15:12:36 0° 322° (NW) 3,696 11.2 44.4°
Reaches altitude 10° 15:15:12 10° 323° (NW) 2,740 10.7 44.0°
Maximum altitude 15:21:39 87° 52° (NE) 975 8.8 43.1°
Drops below altitude 10° 15:27:55 10° 143° (SE) 2,666 10.2 42.1°
Sets 15:30:25 0° 144° (SE) 3,591 10.8 41.7°
